User: anonymous
Location: Heilwood
(40.6210°N, 78.9150°W)
Time: 09:50:03
(UTC-04:00)
Language:

Iridium 4 Rocket - Orbit

View from above orbital plane
View from above orbital plane
View from above satellite
View from above satellite

Ground track
Ground track

The orbit data is extracted from the following two-line orbital elements,

1 24797U 97020F   14260.82692273  .00000465  00000-0  94509-4 0  7623
2 24797 086.9014 000.6392 0229282 061.7764 050.8989 14.43187538913180
Epoch (UTC): 17 September 2014 19:50:46
Eccentricity: 0.0229282
inclination: 86.9014°
perigee height: 584 km
apogee height: 911 km
right ascension of ascending node: 0.6392°
argument of perigee: 61.7764°
revolutions per day: 14.43187538
mean anomaly at epoch: 50.8989°
orbit number at epoch: 91318

The dashed part of the orbit path shows where the satellite is in the earth's shadow,  

DLR